DW0713 Weather Reports


time (UTC)temp
F
wind
direction
speed
knots
gust
knots
rain 1hr
in
rain 24hr
in
rain mn
in
humidity
%
barometer
mb
20260507180315 59 323 6.1 9.6 0.00 0.00 0.00 54 1010.2
20260507175817 59 317 6.1 10.4 0.00 0.00 0.00 54 1010.1
20260507175327 58 311 6.1 11.3 0.00 0.00 0.00 58 1010.2
20260507174810 57 327 7.0 11.3 0.00 0.00 0.00 58 1010.3
20260507174311 57 327 5.2 10.4 0.00 0.00 0.00 58 1010.3
20260507173814 56 317 2.6 11.3 0.00 0.00 0.00 59 1010.3
20260507173321 56 319 5.2 11.3 0.00 0.00 0.00 58 1010.4
20260507172826 56 278 7.0 13.0 0.00 0.00 0.00 58 1010.4
20260507172331 56 342 7.8 13.0 0.00 0.00 0.00 57 1010.4
20260507171814 56 286 8.7 12.2 0.00 0.00 0.00 55 1010.5
20260507171316 57 286 6.1 8.7 0.00 0.00 0.00 53 1010.5
20260507170818 57 338 4.3 9.6 0.00 0.00 0.00 50 1010.5
20260507170343 57 282 5.2 9.6 0.00 0.00 0.00 50 1010.5
20260507165827 57 270 4.3 8.7 0.00 0.00 0.00 50 1010.5
20260507165312 56 259 5.2 8.7 0.00 0.00 0.00 49 1010.6
20260507164839 56 233 5.2 7.8 0.00 0.00 0.00 47 1010.6
20260507164323 56 284 4.3 7.8 0.00 0.00 0.00 46 1010.6
20260507163825 56 327 5.2 8.7 0.00 0.00 0.00 45 1010.6
20260507163311 57 301 4.3 8.7 0.00 0.00 0.00 44 1010.7
20260507162813 57 246 1.7 6.1 0.00 0.00 0.00 43 1010.7
20260507162317 56 274 4.3 6.1 0.00 0.00 0.00 44 1010.7
20260507161820 56 287 2.6 7.8 0.00 0.00 0.00 44 1010.7
20260507161323 56 279 6.1 7.8 0.00 0.00 0.00 42 1010.8
20260507160810 56 290 3.5 7.0 0.00 0.00 0.00 45 1010.7
20260507160313 56 13 0.0 5.2 0.00 0.00 0.00 47 1010.6
20260507155815 55 313 0.0 4.3 0.00 0.00 0.00 49 1010.6
20260507155321 54 306 0.0 4.3 0.00 0.00 0.00 51 1010.8
20260507154824 52 275 1.7 3.5 0.00 0.00 0.00 51 1010.8
20260507154327 51 78 0.0 4.3 0.00 0.00 0.00 53 1009.9
20260507153810 51 74 0.9 4.3 0.00 0.00 0.00 52 1010.1
20260507153314 50 112 0.9 4.3 0.00 0.00 0.00 54 1010.1
20260507152816 50 140 0.0 0.0 0.00 0.00 0.00 53 1010.2
20260507152319 49 163 0.0 2.6 0.00 0.00 0.00 55 1010.5
20260507151821 48 124 0.0 2.6 0.00 0.00 0.00 58 1010.5
20260507151347 47 194 0.0 0.9 0.00 0.00 0.00 60 1010.6
20260507150808 46 278 0.0 1.7 0.00 0.00 0.00 60 1010.7
20260507150315 45 278 0.9 1.7 0.00 0.00 0.00 62 1010.8
20260507145837 45 281 0.0 0.9 0.00 0.00 0.00 60 1010.8
20260507145319 44 281 0.0 3.5 0.00 0.00 0.00 57 1010.8
20260507144806 44 281 0.0 3.5 0.00 0.00 0.00 57 1010.8
20260507144332 44 284 0.9 3.5 0.00 0.00 0.00 56 1010.8
20260507143834 43 90 0.0 0.9 0.00 0.00 0.00 57 1010.9
20260507143320 43 89 0.0 1.7 0.00 0.00 0.00 56 1010.8
20260507142827 43 89 0.0 0.9 0.00 0.00 0.00 55 1010.7
20260507142350 42 89 0.0 0.9 0.00 0.00 0.00 55 1010.6
20260507141832 42 89 0.0 0.0 0.00 0.00 0.00 56 1010.6
20260507141315 42 89 0.0 0.0 0.00 0.00 0.00 56 1010.6
20260507140818 41 89 0.0 0.0 0.00 0.00 0.00 56 1010.7
20260507140342 41 89 0.0 0.0 0.00 0.00 0.00 57 1010.6
20260507135823 41 89 0.0 0.0 0.00 0.00 0.00 59 1010.4
20260507135329 40 89 0.0 0.0 0.00 0.00 0.00 60 1010.4
20260507134811 40 89 0.0 1.7 0.00 0.00 0.00 61 1010.4
20260507134312 40 89 0.0 1.7 0.00 0.00 0.00 62 1010.4
20260507133819 39 89 0.0 0.0 0.00 0.00 0.00 63 1010.4
20260507133328 39 90 0.0 0.0 0.00 0.00 0.00 64 1010.5
20260507132809 39 90 0.0 0.9 0.00 0.00 0.00 65 1010.4
20260507132315 39 89 0.0 2.6 0.00 0.00 0.00 65 1010.4
20260507131841 39 89 0.9 3.5 0.00 0.00 0.00 65 1010.4
20260507131324 39 107 0.9 4.3 0.00 0.00 0.00 65 1010.4
20260507130826 40 69 0.9 4.3 0.00 0.00 0.00 65 1010.4
20260507130312 39 84 0.0 3.5 0.00 0.00 0.00 64 1010.5
20260507125817 39 205 0.0 3.5 0.00 0.00 0.00 66 1010.6
20260507125320 38 30 0.0 0.0 0.00 0.00 0.00 69 1010.4
20260507124823 37 30 0.0 0.0 0.00 0.00 0.00 70 1010.5
20260507124326 36 30 0.0 0.0 0.00 0.00 0.00 70 1010.3
20260507123813 35 30 0.0 0.0 0.00 0.00 0.00 71 1010.3
20260507123317 34 30 0.0 0.0 0.00 0.00 0.00 72 1010.3
20260507122820 34 12 0.0 0.0 0.00 0.00 0.00 72 1010.2
20260507122327 33 12 0.0 0.0 0.00 0.00 0.00 72 1010.2
20260507121829 33 12 0.0 0.0 0.00 0.00 0.00 73 1010.2
20260507121312 33 12 0.0 0.0 0.00 0.00 0.00 72 1010.3
20260507120815 32 12 0.0 0.0 0.00 0.00 0.00 72 1010.0
20260507120339 32 5 0.0 0.0 0.00 0.00 0.00 71 1010.1
20260507115819 32 5 0.0 0.0 0.00 0.00 0.00 72 1010.2
20260507115325 32 5 0.0 0.0 0.00 0.00 0.00 72 1010.2
20260507114828 31 5 0.0 0.0 0.00 0.00 0.00 73 1010.0
20260507114310 31 5 0.0 0.0 0.00 0.00 0.00 72 1010.0
20260507113818 31 5 0.0 0.0 0.00 0.00 0.00 72 1010.0
20260507113322 31 5 0.0 0.0 0.00 0.00 0.00 72 1009.8
20260507112823 31 5 0.0 0.0 0.00 0.00 0.00 73 1009.7
20260507112307 31 5 0.0 0.0 0.00 0.00 0.00 72 1009.8
20260507111812 31 5 0.0 2.6 0.00 0.00 0.00 72 1009.7
20260507111314 31 5 0.0 3.5 0.00 0.00 0.00 72 1009.8
20260507110821 31 5 0.9 3.5 0.00 0.00 0.00 72 1009.8
20260507110325 31 5 0.0 1.7 0.00 0.00 0.00 72 1009.9
20260507105825 30 5 0.0 1.7 0.00 0.00 0.00 72 1009.9
20260507105311 30 5 0.9 1.7 0.00 0.00 0.00 72 1009.8
20260507104816 31 5 0.0 0.9 0.00 0.00 0.00 71 1009.7
20260507104323 31 5 0.0 0.9 0.00 0.00 0.00 72 1009.9
20260507103846 31 5 0.0 1.7 0.00 0.00 0.00 72 1009.9
20260507103328 31 5 0.9 1.7 0.00 0.00 0.00 72 1009.8
20260507102829 31 5 0.0 2.6 0.00 0.00 0.00 72 1009.9
20260507102311 31 5 0.9 4.3 0.00 0.00 0.00 71 1009.8
20260507101815 31 5 0.9 4.3 0.00 0.00 0.00 71 1009.8
20260507101337 31 5 1.7 4.3 0.00 0.00 0.00 71 1009.8
20260507100843 31 31 0.0 0.0 0.00 0.00 0.00 71 1009.8
20260507100327 31 31 0.0 0.0 0.00 0.00 0.00 71 1008.9
20260507095831 31 31 0.0 0.0 0.00 0.00 0.00 70 1008.8
20260507095312 31 31 0.0 0.0 0.00 0.00 0.00 70 1008.8
20260507094813 31 82 0.0 0.0 0.00 0.00 0.00 70 1008.8
20260507094336 31 82 0.0 0.0 0.00 0.00 0.00 70 1008.9
20260507093817 32 82 0.0 0.0 0.00 0.00 0.00 70 1008.9
20260507093324 32 82 0.0 0.0 0.00 0.00 0.00 71 1008.8
20260507092825 32 82 0.0 0.0 0.00 0.00 0.00 71 1008.9
20260507092312 32 82 0.0 0.0 0.00 0.00 0.00 71 1008.9
20260507091814 32 82 0.0 0.0 0.00 0.00 0.00 71 1008.9
20260507091317 32 82 0.0 0.0 0.00 0.00 0.00 70 1009.0
20260507090819 32 82 0.0 0.0 0.00 0.00 0.00 70 1008.9
20260507090324 33 85 0.0 0.0 0.00 0.00 0.00 69 1008.9
20260507085827 33 100 0.0 0.0 0.00 0.00 0.00 69 1008.8
20260507085329 33 101 0.0 0.0 0.00 0.00 0.00 69 1008.7
20260507084815 33 101 0.0 0.0 0.00 0.00 0.00 69 1008.7
20260507084321 33 101 0.0 0.0 0.00 0.00 0.00 69 1008.7
20260507083843 33 101 0.0 0.0 0.00 0.00 0.00 69 1008.8
20260507083326 33 101 0.0 0.0 0.00 0.00 0.00 69 1008.8
20260507082828 33 101 0.0 0.0 0.00 0.00 0.00 68 1008.7
20260507082315 33 101 0.0 0.0 0.00 0.00 0.00 68 1008.9
20260507081818 33 101 0.0 0.0 0.00 0.00 0.00 67 1008.8
20260507081323 33 101 0.0 0.0 0.00 0.00 0.00 66 1008.9
20260507080824 34 101 0.0 0.0 0.00 0.00 0.00 66 1008.8
20260507080312 34 101 0.0 0.0 0.00 0.00 0.00 66 1008.7
20260507075817 34 101 0.0 0.0 0.00 0.00 0.00 66 1008.7
20260507075320 34 101 0.0 0.0 0.00 0.00 0.00 66 1008.7
20260507074822 34 101 0.0 0.0 0.00 0.00 0.00 66 1008.8
20260507074328 34 101 0.0 0.0 0.00 0.00 0.00 66 1008.8
20260507073810 34 161 0.0 0.0 0.00 0.00 0.00 65 1008.7
20260507073319 35 161 0.0 0.0 0.00 0.00 0.00 65 1008.8
20260507072841 35 169 0.0 0.0 0.00 0.00 0.00 63 1008.8
20260507072325 35 169 0.0 0.0 0.00 0.00 0.00 63 1008.9
20260507071831 35 169 0.0 0.9 0.00 0.00 0.00 61 1009.0
20260507071313 35 169 0.0 1.7 0.00 0.00 0.00 56 1009.1
20260507070818 35 169 0.0 1.7 0.00 0.00 0.00 51 1009.2
20260507070319 36 170 0.0 0.0 0.00 0.00 0.00 48 1009.2
20260507065817 36 201 0.0 0.0 0.00 0.00 0.00 49 1009.2
20260507065315 36 201 0.0 0.0 0.00 0.00 0.00 49 1009.3
20260507064839 36 201 0.0 0.0 0.00 0.00 0.00 49 1009.5
20260507064318 36 201 0.0 0.0 0.00 0.00 0.00 50 1009.4
20260507063838 36 201 0.0 0.0 0.00 0.00 0.00 50 1009.4
20260507063318 36 201 0.0 0.0 0.00 0.00 0.00 49 1009.5
20260507062839 37 201 0.0 0.0 0.00 0.00 0.00 48 1009.4
20260507062323 37 201 0.0 3.5 0.00 0.00 0.00 49 1009.4
20260507061826 37 201 1.7 3.5 0.00 0.00 0.00 48 1009.4
20260507061326 37 201 0.9 3.5 0.00 0.00 0.00 50 1009.5
20260507060808 37 201 0.9 3.5 0.00 0.00 0.00 51 1009.5
20260507060315 38 202 0.0 0.0 0.00 0.00 0.00 57 1009.4
20260507055817 38 202 0.0 0.0 0.00 0.00 0.00 59 1009.4
20260507055320 39 262 0.0 0.0 0.00 0.00 0.00 60 1009.4
20260507054823 39 262 0.0 0.0 0.00 0.00 0.00 59 1009.6
20260507054326 39 262 0.0 0.0 0.00 0.00 0.00 58 1009.6
20260507053811 40 262 0.0 0.0 0.00 0.00 0.00 58 1009.7
20260507053339 40 262 0.0 0.0 0.00 0.00 0.00 58 1009.6
20260507052819 40 262 0.0 0.0 0.00 0.00 0.00 57 1009.8
20260507052325 40 262 0.0 0.0 0.00 0.00 0.00 57 1010.0
20260507051848 40 262 0.0 0.0 0.00 0.00 0.00 56 1010.1
20260507051308 40 262 0.0 0.0 0.00 0.00 0.00 56 1010.1
20260507050835 41 267 0.0 0.0 0.00 0.00 0.00 56 1010.1
20260507050323 41 267 0.0 0.0 0.00 0.00 0.00 53 1010.1
20260507045808 41 267 0.0 0.0 0.00 0.00 0.00 52 1010.1
20260507045315 41 267 0.0 0.0 0.00 0.00 0.00 51 1010.1
20260507044841 42 267 0.0 0.0 0.00 0.00 0.00 49 1010.2
20260507044347 42 267 0.0 0.0 0.00 0.00 0.00 47 1010.2
20260507043808 42 267 0.0 0.0 0.00 0.00 0.00 47 1010.2
20260507043315 43 267 0.0 0.0 0.00 0.00 0.00 46 1010.1
20260507042816 43 267 0.0 0.0 0.00 0.00 0.00 46 1010.1
20260507042321 43 267 0.0 0.0 0.00 0.00 0.00 48 1010.1
20260507041829 43 267 0.0 0.0 0.00 0.00 0.00 46 1010.1
20260507041311 44 267 0.0 0.0 0.00 0.00 0.00 42 1010.1
20260507040834 44 267 0.0 0.0 0.00 0.00 0.00 44 1010.2
20260507040319 44 267 0.0 0.0 0.00 0.00 0.00 41 1010.2
20260507035821 45 267 0.0 0.0 0.00 0.00 0.00 41 1010.1
20260507035328 45 267 0.0 2.6 0.00 0.00 0.00 39 1010.2
20260507034831 46 267 0.0 3.5 0.00 0.00 0.00 36 1010.1
20260507034330 46 267 0.9 3.5 0.00 0.00 0.00 37 1010.1
20260507033812 46 268 1.7 3.5 0.00 0.00 0.00 38 1010.1
20260507033318 46 268 1.7 3.5 0.00 0.00 0.00 38 1010.1
20260507032819 46 271 2.6 3.5 0.00 0.00 0.00 39 1010.2
20260507032345 46 271 1.7 4.3 0.00 0.00 0.00 40 1010.2
20260507031828 46 280 3.5 4.3 0.00 0.00 0.00 41 1010.2
20260507031310 47 281 2.6 3.5 0.00 0.00 0.00 40 1010.3
20260507030815 47 281 0.9 3.5 0.00 0.00 0.00 39 1010.3
20260507030319 47 281 2.6 3.5 0.00 0.00 0.00 38 1010.4
20260507025844 48 281 1.7 3.5 0.00 0.00 0.00 38 1010.4
20260507025313 48 284 0.0 0.0 0.00 0.00 0.00 37 1010.4
20260507024816 48 284 0.0 0.0 0.00 0.00 0.00 37 1010.4
20260507024320 48 284 0.0 0.0 0.00 0.00 0.00 36 1010.5
20260507023824 49 284 0.0 0.0 0.00 0.00 0.00 35 1010.4
20260507023348 49 284 0.0 0.0 0.00 0.00 0.00 35 1010.5
20260507022830 49 284 0.0 0.0 0.00 0.00 0.00 34 1010.6
20260507022312 50 284 0.0 3.5 0.00 0.00 0.00 34 1010.7
20260507021815 50 282 0.0 4.3 0.00 0.00 0.00 33 1010.8
20260507021318 50 296 1.7 5.2 0.00 0.00 0.00 33 1010.9
20260507020841 51 315 1.7 5.2 0.00 0.00 0.00 32 1011.0
20260507020324 51 307 1.7 7.8 0.00 0.00 0.00 30 1011.0
20260507015822 51 299 1.7 7.8 0.00 0.00 0.00 29 1011.0
20260507015322 51 313 1.7 7.8 0.00 0.00 0.00 29 1011.1
20260507014825 52 306 3.5 8.7 0.00 0.00 0.00 28 1010.3
20260507014333 52 355 4.3 9.6 0.00 0.00 0.00 28 1010.3
20260507013832 52 297 5.2 9.6 0.00 0.00 0.00 27 1010.3
20260507013333 52 321 5.2 7.8 0.00 0.00 0.00 27 1010.4
20260507012832 52 294 2.6 7.8 0.00 0.00 0.00 28 1010.4
20260507012351 53 9 3.5 8.7 0.00 0.00 0.00 26 1010.4
20260507011830 53 360 3.5 12.2 0.00 0.00 0.00 25 1010.4
20260507011330 53 318 7.8 13.9 0.00 0.00 0.00 25 1010.5
20260507010850 53 288 8.7 13.9 0.00 0.00 0.00 26 1010.5
20260507010330 53 274 6.1 11.3 0.00 0.00 0.00 25 1010.4
20260507005830 53 281 6.1 11.3 0.00 0.00 0.00 25 1010.5
20260507005350 53 299 6.1 10.4 0.00 0.00 0.00 25 1010.5
20260507004850 53 298 7.0 11.3 0.00 0.00 0.00 26 1010.6
20260507004328 53 309 5.2 12.2 0.00 0.00 0.00 25 1010.6
20260507003831 53 310 6.1 15.6 0.00 0.00 0.00 25 1010.6
20260507003353 54 312 7.8 15.6 0.00 0.00 0.00 25 1010.6
20260507002830 53 272 5.2 12.2 0.00 0.00 0.00 26 1010.7
20260507002333 53 289 5.2 11.3 0.00 0.00 0.00 26 1010.7
20260507001818 53 273 4.3 13.9 0.00 0.00 0.00 25 1010.7
20260507001317 54 306 7.0 13.9 0.00 0.00 0.00 24 1010.7
20260507000818 54 280 7.8 16.5 0.00 0.00 0.00 25 1010.8
20260507000321 54 256 9.6 16.5 0.00 0.00 0.00 25 1010.9
20260506235821 54 320 8.7 13.0 0.00 0.00 0.00 26 1010.9
20260506235341 55 263 8.7 12.2 0.00 0.00 0.00 24 1010.9
20260506234825 55 320 6.1 12.2 0.00 0.00 0.00 25 1011.0
20260506234344 54 286 6.1 16.5 0.00 0.00 0.00 24 1011.0
20260506233822 55 295 7.0 16.5 0.00 0.00 0.00 25 1011.1
20260506233325 55 288 7.8 13.9 0.00 0.00 0.00 25 1011.1
20260506232845 55 328 7.0 11.3 0.00 0.00 0.00 25 1011.1
20260506232323 54 346 3.5 8.7 0.00 0.00 0.00 25 1011.3
20260506231822 54 289 5.2 13.9 0.00 0.00 0.00 24 1011.3
20260506231346 54 267 6.1 13.9 0.00 0.00 0.00 24 1011.5
20260506230846 55 272 8.7 12.2 0.00 0.00 0.00 24 1011.5
20260506230327 55 265 7.8 13.9 0.00 0.00 0.00 25 1011.6
20260506225828 54 290 7.0 13.9 0.00 0.00 0.00 25 1011.5
20260506225317 54 324 7.0 13.9 0.00 0.00 0.00 24 1011.8
20260506224816 53 284 4.3 15.6 0.00 0.00 0.00 26 1011.9
20260506224316 53 301 7.0 15.6 0.00 0.00 0.00 25 1012.1
20260506223816 53 226 7.8 12.2 0.00 0.00 0.00 25 1012.2
20260506223317 54 292 6.1 15.6 0.00 0.00 0.00 25 1012.4
20260506222815 54 271 5.2 16.5 0.00 0.00 0.00 25 1012.5
20260506222318 54 292 9.6 16.5 0.00 0.00 0.00 26 1012.5
20260506221821 54 279 9.6 15.6 0.00 0.00 0.00 24 1012.5
20260506221321 54 264 4.3 13.0 0.00 0.00 0.00 26 1012.5
20260506220822 54 301 5.2 8.7 0.00 0.00 0.00 26 1012.7
20260506220322 53 16 5.2 13.0 0.00 0.00 0.00 26 1012.7
20260506215821 53 240 7.8 13.0 0.00 0.00 0.00 26 1012.8
20260506215321 53 288 6.1 15.6 0.00 0.00 0.00 25 1012.8
20260506214844 53 271 8.7 15.6 0.00 0.00 0.00 26 1012.8
20260506214328 53 313 5.2 8.7 0.00 0.00 0.00 26 1012.8
20260506213811 53 297 2.6 8.7 0.00 0.00 0.00 25 1012.9
20260506213316 53 251 5.2 13.0 0.00 0.00 0.00 26 1012.9
20260506212815 53 284 4.3 13.0 0.00 0.00 0.00 25 1013.2
20260506212338 53 234 6.1 13.0 0.00 0.00 0.00 26 1013.4
20260506211817 53 225 7.8 13.9 0.00 0.00 0.00 25 1013.6
20260506211317 52 253 8.7 13.9 0.00 0.00 0.00 26 1013.8
20260506210816 52 227 5.2 10.4 0.00 0.00 0.00 27 1013.9
20260506210319 52 349 6.1 13.0 0.00 0.00 0.00 27 1013.9
20260506205820 52 302 7.8 13.0 0.00 0.00 0.00 27 1014.0
20260506205324 52 300 7.0 12.2 0.00 0.00 0.00 27 1014.1
20260506204826 52 260 7.0 16.5 0.00 0.00 0.00 26 1014.3
20260506204326 52 316 6.1 16.5 0.00 0.00 0.00 26 1014.3
20260506203830 51 225 4.3 11.3 0.00 0.00 0.00 27 1014.4
20260506203332 51 194 5.2 11.3 0.00 0.00 0.00 28 1014.6
20260506202834 51 267 0.9 13.0 0.00 0.00 0.00 26 1014.6
20260506202334 52 310 6.1 13.9 0.00 0.00 0.00 27 1014.7
20260506201814 52 304 7.0 13.9 0.00 0.00 0.00 28 1014.6
20260506201318 52 344 5.2 13.9 0.00 0.00 0.00 28 1014.7
20260506200838 51 9 9.6 13.0 0.00 0.00 0.00 30 1014.7
20260506200321 50 308 5.2 11.3 0.00 0.00 0.00 31 1014.8
20260506195823 50 220 8.7 11.3 0.00 0.00 0.00 29 1014.9
20260506195323 50 276 4.3 13.0 0.00 0.00 0.00 31 1015.0
20260506194824 50 281 7.0 13.0 0.00 0.00 0.00 31 1015.0
20260506194328 50 320 5.2 10.4 0.00 0.00 0.00 30 1015.1
20260506193826 49 320 1.7 11.3 0.00 0.00 0.00 30 1015.1
20260506193351 49 222 8.7 18.2 0.00 0.00 0.00 30 1015.1
20260506192833 49 250 11.3 18.2 0.00 0.00 0.00 30 1015.3
20260506192312 49 246 7.0 12.2 0.00 0.00 0.00 30 1015.4
20260506191816 49 259 3.5 15.6 0.00 0.00 0.00 32 1015.4
20260506191320 49 243 7.0 15.6 0.00 0.00 0.00 31 1015.7
20260506190822 48 295 3.5 15.6 0.00 0.00 0.00 33 1015.7
20260506190344 48 274 10.4 15.6 0.00 0.00 0.00 31 1016.0
20260506185821 48 236 5.2 9.6 0.00 0.00 0.00 34 1016.0
20260506185347 48 277 4.3 13.0 0.00 0.00 0.00 33 1016.0
20260506184825 48 304 7.8 13.0 0.00 0.00 0.00 34 1016.1
20260506184326 47 282 2.6 15.6 0.00 0.00 0.00 35 1016.2
20260506183811 47 306 7.0 15.6 0.00 0.00 0.00 33 1016.3
20260506183335 47 270 6.1 17.4 0.00 0.00 0.00 35 1016.3
20260506182834 47 336 7.8 17.4 0.00 0.00 0.00 34 1016.4
20260506182316 47 235 3.5 10.4 0.00 0.00 0.00 34 1016.4
20260506181819 47 213 7.0 13.0 0.00 0.00 0.00 32 1016.6
20260506181321 47 355 4.3 13.0 0.00 0.00 0.00 33 1016.7
20260506180820 47 311 7.0 13.0 0.00 0.00 0.00 35 1016.8